TimeEDT,TemperatureF,Dew PointF,Humidity,Sea Level PressureIn,VisibilityMPH,Wind Direction,Wind SpeedMPH,Gust SpeedMPH,PrecipitationIn,Events,Conditions,WindDirDegrees,DateUTC
12:15 AM,64.4,63.0,95,30.05,10.0,Calm,Calm,-,N/A,,Mostly Cloudy,0,2013-08-06 04:15:00
12:35 AM,64.0,63.1,97,30.06,10.0,Calm,Calm,-,N/A,,Overcast,0,2013-08-06 04:35:00
12:55 AM,65.8,63.7,93,30.06,10.0,Calm,Calm,-,N/A,,Overcast,0,2013-08-06 04:55:00
1:15 AM,64.4,64.0,99,30.06,10.0,Calm,Calm,-,N/A,,Overcast,0,2013-08-06 05:15:00
1:35 AM,65.7,64.4,96,30.05,10.0,Calm,Calm,-,N/A,,Overcast,0,2013-08-06 05:35:00
1:55 AM,65.5,64.8,98,30.05,10.0,Calm,Calm,-,N/A,,Overcast,0,2013-08-06 05:55:00
2:15 AM,65.8,64.8,96,30.04,10.0,Calm,Calm,-,N/A,,Overcast,0,2013-08-06 06:15:00
2:35 AM,66.0,64.8,96,30.04,10.0,Calm,Calm,-,N/A,,Overcast,0,2013-08-06 06:35:00
2:55 AM,66.2,65.3,97,30.03,10.0,Calm,Calm,-,N/A,,Overcast,0,2013-08-06 06:55:00
3:15 AM,65.7,65.1,98,30.03,10.0,Calm,Calm,-,N/A,,Overcast,0,2013-08-06 07:15:00
3:35 AM,66.2,65.5,98,30.03,10.0,Calm,Calm,-,N/A,,Overcast,0,2013-08-06 07:35:00
3:55 AM,66.6,65.7,97,30.02,10.0,Calm,Calm,-,N/A,,Overcast,0,2013-08-06 07:55:00
4:15 AM,65.8,65.7,99,30.03,10.0,Calm,Calm,-,N/A,,Overcast,0,2013-08-06 08:15:00
4:35 AM,65.3,65.3,100,30.04,10.0,Calm,Calm,-,N/A,,Overcast,0,2013-08-06 08:35:00
4:55 AM,66.4,65.5,97,30.05,10.0,Calm,Calm,-,N/A,,Overcast,0,2013-08-06 08:55:00
5:15 AM,66.4,66.4,100,30.05,10.0,Calm,Calm,-,N/A,,Overcast,0,2013-08-06 09:15:00
5:35 AM,66.4,66.0,99,30.05,10.0,Calm,Calm,-,N/A,,Overcast,0,2013-08-06 09:35:00
5:55 AM,67.1,66.2,97,30.04,10.0,Calm,Calm,-,N/A,,Overcast,0,2013-08-06 09:55:00
6:15 AM,67.3,66.2,96,30.05,10.0,Calm,Calm,-,N/A,,Overcast,0,2013-08-06 10:15:00
6:35 AM,67.3,66.2,96,30.05,10.0,Calm,Calm,-,N/A,,Overcast,0,2013-08-06 10:35:00
6:55 AM,66.9,66.6,99,30.06,10.0,Calm,Calm,-,N/A,,Overcast,0,2013-08-06 10:55:00
7:15 AM,67.1,66.9,99,30.06,10.0,Calm,Calm,-,N/A,,Overcast,0,2013-08-06 11:15:00
7:35 AM,68.0,66.6,95,30.06,10.0,Calm,Calm,-,N/A,,Overcast,0,2013-08-06 11:35:00
7:55 AM,68.2,67.1,96,30.08,10.0,Calm,Calm,-,N/A,,Overcast,0,2013-08-06 11:55:00
8:15 AM,69.3,66.7,92,30.08,10.0,Calm,Calm,-,N/A,,Overcast,0,2013-08-06 12:15:00
8:35 AM,70.0,66.9,90,30.09,10.0,Calm,Calm,-,N/A,,Overcast,0,2013-08-06 12:35:00
8:55 AM,70.7,66.9,88,30.09,10.0,Calm,Calm,-,N/A,,Overcast,0,2013-08-06 12:55:00
9:15 AM,71.6,65.8,82,30.09,10.0,Calm,Calm,-,N/A,,Overcast,0,2013-08-06 13:15:00
9:35 AM,72.9,65.7,78,30.08,10.0,SW,3.5,-,N/A,,Overcast,230,2013-08-06 13:35:00
9:55 AM,73.9,66.6,78,30.09,10.0,WSW,4.6,-,N/A,,Overcast,250,2013-08-06 13:55:00
10:15 AM,73.6,66.2,78,30.09,10.0,Calm,Calm,-,N/A,,Overcast,0,2013-08-06 14:15:00
10:35 AM,74.5,65.7,74,30.10,10.0,West,3.5,-,N/A,,Mostly Cloudy,270,2013-08-06 14:35:00
10:55 AM,75.7,66.6,73,30.10,10.0,West,5.8,-,N/A,,Mostly Cloudy,280,2013-08-06 14:55:00
11:15 AM,76.6,67.3,73,30.10,10.0,West,4.6,-,N/A,,Overcast,260,2013-08-06 15:15:00
11:35 AM,76.5,66.9,72,30.10,10.0,SSW,8.1,-,N/A,,Overcast,210,2013-08-06 15:35:00
11:55 AM,77.0,67.1,71,30.09,10.0,SW,6.9,-,N/A,,Overcast,220,2013-08-06 15:55:00
12:15 PM,77.9,67.1,69,30.09,10.0,SW,5.8,-,N/A,,Overcast,220,2013-08-06 16:15:00
12:35 PM,77.9,66.7,68,30.09,10.0,SW,3.5,-,N/A,,Overcast,220,2013-08-06 16:35:00
12:55 PM,77.9,65.1,65,30.09,10.0,West,5.8,-,N/A,,Overcast,260,2013-08-06 16:55:00
1:15 PM,79.5,68.5,69,30.08,10.0,SSW,6.9,-,N/A,,Overcast,200,2013-08-06 17:15:00
1:35 PM,79.3,67.3,66,30.08,10.0,SSW,4.6,-,N/A,,Mostly Cloudy,200,2013-08-06 17:35:00
1:55 PM,79.9,67.6,66,30.09,10.0,SSW,4.6,-,N/A,,Scattered Clouds,210,2013-08-06 17:55:00
2:15 PM,80.2,67.6,65,30.08,10.0,West,6.9,-,N/A,,Mostly Cloudy,260,2013-08-06 18:15:00
2:35 PM,81.3,67.8,63,30.08,10.0,SW,8.1,-,N/A,,Overcast,220,2013-08-06 18:35:00
2:55 PM,81.1,66.9,62,30.07,10.0,West,3.5,-,N/A,,Mostly Cloudy,280,2013-08-06 18:55:00
3:15 PM,81.3,67.6,63,30.07,10.0,West,3.5,-,N/A,,Scattered Clouds,270,2013-08-06 19:15:00
3:35 PM,80.6,67.1,63,30.06,10.0,WSW,5.8,-,N/A,,Mostly Cloudy,240,2013-08-06 19:35:00
3:55 PM,81.3,68.2,64,30.05,10.0,South,8.1,-,N/A,,Mostly Cloudy,190,2013-08-06 19:55:00
4:15 PM,81.5,67.5,62,30.05,10.0,SSW,6.9,-,N/A,,Scattered Clouds,200,2013-08-06 20:15:00
4:35 PM,81.5,67.1,61,30.05,10.0,SW,3.5,-,N/A,,Clear,230,2013-08-06 20:35:00
4:55 PM,81.5,66.7,61,30.06,10.0,WNW,3.5,-,N/A,,Mostly Cloudy,290,2013-08-06 20:55:00
5:15 PM,81.0,67.3,63,30.06,10.0,West,4.6,-,N/A,,Overcast,270,2013-08-06 21:15:00
5:35 PM,81.1,68.0,64,30.06,10.0,West,3.5,-,N/A,,Overcast,280,2013-08-06 21:35:00
5:55 PM,80.2,68.0,66,30.06,10.0,Calm,Calm,-,N/A,,Overcast,0,2013-08-06 21:55:00
6:15 PM,79.9,68.5,68,30.06,10.0,Calm,Calm,-,N/A,,Overcast,0,2013-08-06 22:15:00
6:35 PM,80.6,69.1,68,30.06,10.0,West,3.5,-,N/A,,Mostly Cloudy,280,2013-08-06 22:35:00
6:55 PM,80.2,69.4,69,30.06,10.0,Calm,Calm,-,N/A,,Mostly Cloudy,0,2013-08-06 22:55:00
7:15 PM,80.1,69.3,69,30.06,-9999.0,Calm,Calm,-,N/A,,Unknown,0,2013-08-06 23:15:00
7:35 PM,79.9,69.8,71,30.06,10.0,Calm,Calm,-,N/A,,Mostly Cloudy,0,2013-08-06 23:35:00
7:55 PM,79.0,71.4,78,30.06,10.0,Calm,Calm,-,N/A,,Mostly Cloudy,0,2013-08-06 23:55:00
8:15 PM,78.6,72.5,81,30.06,10.0,Calm,Calm,-,N/A,,Mostly Cloudy,0,2013-08-07 00:15:00
8:35 PM,76.1,72.5,89,30.05,10.0,Calm,Calm,-,N/A,,Scattered Clouds,0,2013-08-07 00:35:00
8:55 PM,75.2,71.6,89,30.06,10.0,Calm,Calm,-,N/A,,Clear,0,2013-08-07 00:55:00
9:15 PM,73.6,71.2,92,30.06,10.0,Calm,Calm,-,N/A,,Clear,0,2013-08-07 01:15:00
9:35 PM,72.7,71.1,95,30.06,10.0,Calm,Calm,-,N/A,,Scattered Clouds,0,2013-08-07 01:35:00
9:55 PM,72.5,71.1,95,30.06,10.0,Calm,Calm,-,N/A,,Mostly Cloudy,0,2013-08-07 01:55:00
10:15 PM,72.5,71.1,95,30.07,10.0,Calm,Calm,-,N/A,,Scattered Clouds,0,2013-08-07 02:15:00
10:35 PM,71.8,70.9,97,30.07,10.0,Calm,Calm,-,N/A,,Mostly Cloudy,0,2013-08-07 02:35:00
10:55 PM,72.5,71.1,95,30.07,10.0,Calm,Calm,-,N/A,,Overcast,0,2013-08-07 02:55:00
11:15 PM,72.5,71.6,97,30.08,10.0,Calm,Calm,-,N/A,,Overcast,0,2013-08-07 03:15:00
11:35 PM,73.0,71.6,95,30.07,10.0,Calm,Calm,-,N/A,,Overcast,0,2013-08-07 03:35:00
11:55 PM,72.9,71.6,96,30.08,10.0,Calm,Calm,-,N/A,,Overcast,0,2013-08-07 03:55:00